Other Public Products
Issued by NWS Grand Forks, ND

Home | Current Version | Previous Version | Graphics & Text | Print | Product List | Glossary On
Versions: 1 2 3 4 5 6 7 8 9 10 11 12 13 14 15 16 17 18 19 20 21 22 23 24 25 26 27 28 29 30 31 32 33 34 35 36 37 38 39 40 41 42 43 44 45 46 47 48 49 50
000
FPUS83 KFGF 261110
OPUFGF
PRAIRIE TO PINES WEATHER ROUNDUP
NATIONAL WEATHER SERVICE EASTERN NORTH DAKOTA/GRAND FORKS ND
600 AM CDT MON SEP 26 2016

 **SATELLITE DATA USED TO AUGMENT SKY COVER AT AUTOMATED STATIONS**
 *****  WEATHER ACROSS EASTERN NORTH DAKOTA  *****

CITY           SKY/WX    TMP DP  RH WIND       PRES   REMARKS
GRAND FORKS    CLEAR     49  37  63 NW17G24   29.94R
GRAND FORKS AF CLEAR     49  36  61 NW16G23   29.95R
GRAND CITY NWS NOT AVBL
BUXTON         NOT AVBL
DEVILS LAKE    CLEAR     46  37  71 W15       30.03R
FARGO          CLEAR     48  36  63 W14       29.97R
WAHPETON ARPT  SUNNY     45  36  70 W15       30.01R
$$

 *****  WEATHER ACROSS CENTRAL AND WESTERN NORTH DAKOTA  *****

CITY           SKY/WX    TMP DP  RH WIND       PRES   REMARKS
JAMESTOWN      CLEAR     45  37  73 W13       30.06S
BISMARCK       CLEAR     41  34  76 W10       30.17R
MINOT          CLEAR     45  34  65 W13       30.11R
MINOT AFB      CLEAR     43  34  70 W13       30.10R
GARRISON         N/A     41  37  86 W8        30.14S
WILLISTON      CLEAR     37  32  82 S5        30.20R
DICKINSON      CLOUDY    40  34  79 W6        30.19S
HETTINGER      CLEAR     39  36  89 W3        30.23S
$$

 *****  OTHER OBSERVATIONS NORTHEAST NORTH DAKOTA  *****

CITY           SKY/WX    TMP DP  RH WIND       PRES   REMARKS
WALHALLA       FAIR      46  43  87 W12G20    29.93S
LANGDON        FAIR      43  37  81 W17G23    29.97S
CAVALIER       FAIR      48  37  66 W15G21    29.92S
GRAFTON        FAIR      48  39  71 W18G25    29.94S
CANDO          FAIR      39  39 100 W9        30.05S
FORT TOTTEN      N/A     48  39  71 NW8       29.95S
ROLLA          FAIR      45  32  61 NW13      30.03F
RUGBY          FAIR      37  36  93 W10       30.06F
 ***** THE ABOVE OBSERVATIONS ARE NON NWS ARE NOT QUALITY
        CONTROLLED AND MAY MIS-REPORT RAIN FOR SNOW...
$$

 *****  OTHER OBSERVATIONS SOUTHEAST NORTH DAKOTA *****

CITY           SKY/WX    TMP DP  RH WIND       PRES   REMARKS
COOPERSTOWN    FAIR      45  37  76 W16       30.01S
VALLEY CITY    FAIR      46  37  71 W17       30.05R
OAKES          NOT AVBL
GWINNER        FAIR      46  37  71 W14G20    30.06S
BUFFALO        NOT AVBL
WYNDMERE       NOT AVBL
 ***** THE ABOVE OBSERVATIONS ARE NON NWS ARE NOT QUALITY
       CONTROLLED AND MAY MIS-REPORT RAIN FOR SNOW...
$$

  *****  WEATHER ACROSS NORTHERN MINNESOTA  *****

CITY           SKY/WX    TMP DP  RH WIND       PRES   REMARKS
FLAG ISLAND    CLOUDY    50  45  81 W26G32    29.70S
WARROAD        MOCLDY    48  45  87 W17G23    29.77S
ROSEAU         PTCLDY    48  43  81 W13G21    29.80R
HALLOCK        PTCLDY    50  39  66 NW17G24   29.88S
THF RVR FALLS  CLEAR     47  39  74 NW17      29.88S
HALSTAD          N/A     47  39  75 W13         N/A
FOSSTON        PTCLDY    45  39  81 W15G21    29.89S
BAUDETTE       CLOUDY    48  44  86 W14G30    29.73R
WASKISH        CLOUDY    50  45  81 W23G31    29.77S
CROOKSTON      CLEAR     46  39  76 NW15      29.92R
$$
  *****  WEATHER ACROSS CENTRAL AND WEST MINNESOTA  *****

CITY           SKY/WX    TMP DP  RH WIND       PRES   REMARKS
BEMIDJI        PTCLDY    47  39  74 W16G23    29.83S
PARK RAPIDS    CLEAR     46  38  73 W14       29.88S
WADENA         CLEAR     46  37  71 W13G18    29.92R
DETROIT LAKES  CLEAR     46  37  71 W16       29.94S
MOORHEAD       CLEAR     46  36  66 W14       29.97S
FERGUS FALLS   CLEAR     45  37  76 W10       30.01R
ELBOW LAKE     FAIR      46  37  73 NW15      30.00R
MORRIS MN      CLEAR     48  37  66 W16       30.00S
STAPLES        CLEAR     45  37  76 W9        29.90S
WHEATON        NOT AVBL
$$
  *****  WEATHER ELSEWHERE ACROSS MINNESOTA  *****

CITY           SKY/WX    TMP DP  RH WIND       PRES   REMARKS
DULUTH         LGT RAIN  49  47  93 W18G31    29.70S
INTRNTL FALLS  RAIN      49  47  93 W16G28    29.66R
ELY            DRIZZLE   48  46  93 W15G22    29.60S
CLOQUET        CLOUDY    48  45  87 W13G23    29.74R
BRAINERD       CLEAR     49  40  71 W13       29.87S
HIBBING        LGT RAIN  47  45  93 W15G25    29.70S
ALEXANDRIA     CLEAR     47  39  74 W13       29.98R
SAINT CLOUD    CLEAR     49  40  71 W13       29.92S
MINNEAPOLIS    PTCLDY    52  40  63 W15G24    29.93S
$$

  *****  WEATHER ACROSS SOUTH DAKOTA  *****

CITY           SKY/WX    TMP DP  RH WIND       PRES   REMARKS
SIOUX FALLS    CLEAR     43  36  76 W7        30.15S
BROOKINGS      CLEAR     45  35  68 NW10      30.12S
WATERTOWN      CLEAR     47  36  65 W10       30.10S
HURON          CLEAR     44  35  70 W9        30.16S
SISSETON         N/A     50  35  56 NW18      30.04S
ABERDEEN       PTCLDY    41  34  76 SW7       30.13F
MITCHELL       PTCLDY    44  36  73 W7        30.18F
PIERRE         CLEAR     43  35  73 SW8       30.20S
MOBRIDGE       CLEAR     45  38  76 NW12      30.16F
RAPID CITY     CLEAR     39  33  79 W3        30.27F
$$

  *****  SOME WEATHER IN NEARBY STATES *****

CITY           SKY/WX    TMP DP  RH WIND       PRES   REMARKS
GLASGOW MT     CLEAR     39  35  86 NW13      30.22S
GREAT FALLS MT CLOUDY    49  41  74 SW12      30.32F
CHEYENNE WY    CLOUDY    41  32  70 W5        30.41F
SCOTTSBLUFF NE CLEAR     37  34  89 NW6       30.37R
OMAHA NE       PTCLDY    50  39  66 SE3       30.22S
DES MOINES IA  CLEAR     51  41  68 W7        30.14S
DAVENPORT IA   CLEAR     52  46  80 W7        30.07R
CHICAGO IL     CLOUDY    60  49  66 W10       29.98R
EAU CLAIRE WI  CLEAR     50  44  80 SW14      29.87S
LA CROSSE WI   CLEAR     55  44  66 W10       29.95R
$$

  *****  SOME NATIONAL WEATHER *****

CITY           SKY/WX    TMP DP  RH WIND       PRES   REMARKS
LA GUARDIA NY  PTCLDY    58  48  69 NE7       30.19R
RALEIGH NC     LGT RAIN  67  58  72 SE5       30.13R
ATLANTA GA     PTCLDY    71  67  87 SE6       30.08R
NEW ORLEANS LA PTCLDY    78  73  84 NW6       30.00R
OKLAHOMA CITY  PTCLDY    60  51  72 N10       30.23R
ALBUQUERQUE NM CLEAR     55  34  45 E14       30.44F
SALT LAKE CITY CLEAR     51  42  71 SE6       30.40S
LOS ANGELES CA CLEAR     73  40  30 CALM      29.91F
BOISE ID       CLEAR     55  40  56 SE10      30.33S
SEATTLE WA     CLEAR     57  51  80 N9        30.18F
$$

*** WEATHER ACROSS MANITOBA...SASKATCHEWAN AND ONTARIO ***
                ***ONTARIO***

CITY           SKY/WX    TMP DP  RH WIND       PRES   REMARKS
GERALDTON      PTCLDY    54  54 100 S5        29.52F
THUNDER BAY    CLOUDY    52  50  93 SW3       29.51F
SIOUX LOOKOUT  DRIZZLE   50  48  93 NW14G23   29.48S
TORONTO        MOCLDY    57  48  72 SE9       29.96F
BIG TROUT LK   LGT RAIN  54  54 100 SE6       29.43F
PICKLE LAKE    DRIZZLE   54  52  94 SE8       29.42
DRYDEN         LGT RAIN  48  48 100 NW15G21   29.54S FOG
KENORA         LGT RAIN  50  45  81 NW14G25   29.64F
$$
                *** MANITOBA***

CITY           SKY/WX    TMP DP  RH WIND       PRES   REMARKS
BRANDON        CLEAR     39  36  87 W13       30.00F
DAUPHIN        CLEAR     43  36  75 W15       29.96S
ISLAND LAKE    CLOUDY    50  48  93 N22G32    29.58S
PILOT MOUND      N/A     43  36  75 W12         N/A
THE PAS        CLOUDY    48  41  76 NW16      29.96
THOMPSON       LGT RAIN  50  48  93 NW9       29.76R
WINNIPEG       PTCLDY    46  43  87 W15       29.85R
LYNN LAKE      CLOUDY    48  43  81 NW16G24   29.90R
CHURCHILL      LGT RAIN  45  43  93 NW14G22   29.62R
GILLAM         LGT RAIN  48  46  93 N18G25    29.63R
$$
                ***SASKATCHEWAN***

CITY           SKY/WX    TMP DP  RH WIND       PRES   REMARKS
ESTEVAN        NOT AVBL
KINDERSLEY     PTCLDY    37  34  87 SW3       30.19S
LLOYDMINSTER   CLEAR     41  32  70 SW7       30.15F
PRINCE ALBERT  CLEAR     36  32  87 W5        30.12R
REGINA         CLEAR     32  30  93 W7        30.15S
YORKTON        CLEAR     37  34  87 W8        30.06S
N. BATTLEFORD  CLEAR     34  34 100 CALM      30.19F   C1F1C2F2C3F3C4F4C5F5C6F6C7F7C8F8C9F9CaFaCbFbCcFcCdFdCe!


USA.gov is the U.S. government's official web portal to all federal, state and local government web resources and services.